Wind_Speed
8 8 8 8 7 5 3 5 8 12 15 14 14 13 12 13 14 13 13 13 12 10 9 9 10 9 9 9 9 9 9 9 9 9 9 9 9 9 9 9 9 9 9 9 9 9 9 9 9
9 9 9 8 7 5 5 9 13 17 17 15 14 13 13 15 15 14 13 13 12 11 10 10 10 11 10 10 10 10 10 10 10 10 10 10 10 10 10 10 9 10 10 10 10 10 10 10 10
10 10 11 9 7 7 8 12 16 17 17 16 15 14 14 16 14 14 14 13 12 11 11 11 11 11 12 12 11 10 10 10 10 11 11 11 11 11 11 11 10 10 10 10 10 10 10 10 11
11 11 11 11 10 11 11 13 16 17 17 16 15 14 15 16 15 15 15 14 13 12 12 12 12 12 12 11 10 10 10 11 11 11 11 11 11 11 11 12 12 11 12 12 11 11 11 11 11
11 11 11 11 11 14 15 17 17 18 18 16 16 15 16 16 16 15 15 15 14 13 12 12 12 12 12 12 11 11 11 12 12 12 12 12 12 12 13 13 13 13 13 12 12 12 13 13 13
11 10 10 11 13 15 16 18 19 17 16 17 16 17 17 17 16 14 15 15 14 13 12 12 13 13 13 13 13 12 12 12 13 13 14 14 14 13 13 13 14 14 14 14 13 14 14 14 14
10 10 10 10 12 15 16 18 19 18 18 17 18 18 17 17 15 14 15 15 14 15 13 12 13 14 14 14 14 14 13 14 14 14 15 15 15 14 14 15 15 15 15 14 15 15 15 15 15
9 9 10 10 12 14 17 19 19 18 19 18 18 17 17 18 17 16 16 16 16 16 15 14 14 15 15 16 15 15 15 15 15 15 16 16 16 15 16 16 16 16 16 16 16 16 16 16 16
9 10 10 11 13 15 18 18 19 20 20 18 18 18 18 18 18 18 18 17 17 17 18 17 16 16 17 16 17 16 16 16 16 16 16 16 16 17 17 16 16 17 18 17 17 17 17 17 17
9 10 11 14 15 17 19 18 18 18 19 19 19 18 18 19 19 19 19 19 18 18 19 19 18 18 18 17 17 17 17 17 18 17 17 17 17 18 18 18 18 18 19 19 19 18 18 19 18
11 13 14 16 18 19 19 19 19 18 18 19 18 17 19 19 19 19 20 20 19 19 19 20 18 18 18 18 17 18 18 18 18 18 18 18 18 18 18 18 18 19 20 20 20 20 20 20 20
12 14 15 16 17 18 17 18 18 18 17 18 17 17 19 20 20 20 20 20 21 20 19 18 19 19 18 18 17 17 17 17 17 18 18 18 18 18 19 19 19 19 20 20 21 22 22 21 21
12 15 15 16 16 17 17 17 17 17 17 18 18 19 20 20 20 20 20 21 21 20 19 19 19 20 19 19 19 18 18 18 18 18 19 19 19 19 19 20 20 20 21 20 21 22 22 21 22
12 13 14 14 15 15 16 16 17 17 18 19 20 20 19 20 19 20 20 20 21 20 19 19 19 19 19 19 19 19 19 19 19 19 20 20 20 20 20 21 21 22 21 20 20 21 21 22 22
12 12 13 13 15 15 14 15 17 17 17 19 19 20 21 21 20 20 20 20 20 20 20 19 18 19 20 20 20 20 19 20 19 19 20 20 20 20 20 20 21 21 20 20 20 21 21 21 21
11 11 12 13 14 15 16 17 19 18 17 18 19 20 22 22 20 20 21 20 20 20 20 20 20 19 19 19 20 20 19 19 19 20 20 20 20 21 21 21 21 20 21 21 21 21 21 21 21
11 11 12 14 15 15 16 18 20 19 19 19 21 21 22 21 20 20 20 20 20 20 21 21 21 20 19 19 19 19 19 19 19 19 19 20 21 22 22 21 21 21 21 21 21 21 21 21 21
12 12 12 14 16 16 17 18 18 17 19 21 21 21 21 20 19 19 20 20 20 20 20 21 20 20 20 20 19 19 18 19 19 20 20 21 21 21 21 22 21 21 21 21 21 22 22 22 21
12 11 11 12 14 16 17 18 17 18 19 20 19 20 20 20 18 18 19 20 20 20 20 21 20 20 20 20 19 19 19 20 20 20 20 21 21 21 22 21 21 21 22 22 22 22 22 22 22
11 11 10 10 12 14 15 15 14 16 17 19 19 19 19 19 18 18 18 19 19 19 19 19 20 19 20 20 20 20 20 20 21 21 21 21 21 21 22 22 21 21 21 22 22 22 22 22 22
11 10 11 11 11 12 12 13 14 15 17 16 18 18 18 18 18 18 18 18 18 19 19 19 19 19 19 19 20 20 20 21 22 21 22 22 22 22 22 22 22 22 23 22 21 21 21 21 21
11 9 9 8 9 10 11 14 14 16 17 16 16 16 17 17 18 18 17 16 17 17 18 18 19 19 19 20 20 20 20 21 22 22 22 23 22 22 22 22 21 22 23 22 20 21 21 21 21
9 8 8 8 8 9 11 13 15 16 17 17 16 15 16 16 17 17 17 17 16 16 17 18 18 18 19 19 20 20 19 20 20 20 20 20 21 22 23 22 21 22 21 21 20 21 21 22 22
9 9 8 8 9 11 11 13 15 17 17 17 15 15 15 16 15 16 16 16 15 15 17 17 17 17 17 18 18 18 19 19 19 20 19 20 21 21 21 21 21 21 21 21 21 21 21 21 21
9 8 9 9 8 9 10 13 15 17 16 16 16 15 14 15 15 14 14 15 15 16 16 16 16 16 16 17 17 17 18 18 19 19 19 20 20 20 20 20 20 20 19 19 19 20 20 21 21
8 7 8 9 9 10 11 13 15 17 16 16 15 14 14 14 12 12 12 12 14 14 14 15 15 15 16 17 17 17 17 17 17 18 19 19 19 20 20 20 19 18 17 18 19 19 20 21 22
6 6 7 10 9 9 10 13 15 17 15 14 14 13 13 12 11 11 9 9 11 13 13 14 15 15 15 16 17 16 16 16 17 18 18 18 19 19 18 17 17 17 18 18 19 21 21 21 22
7 7 8 8 10 10 10 12 15 17 15 14 13 12 11 10 10 10 9 9 10 10 11 13 13 14 14 14 15 16 16 16 17 18 18 17 17 17 16 16 16 16 17 19 20 21 21 22 22
10 10 10 10 11 12 13 13 15 16 16 14 12 11 11 10 10 10 9 10 10 10 12 11 12 12 12 13 14 15 16 17 18 18 17 17 16 15 15 16 16 17 17 18 19 20 21 21 21
11 11 12 12 11 12 14 16 15 14 14 13 12 12 10 10 10 10 10 10 10 11 12 12 12 12 12 12 14 15 16 17 17 16 16 14 14 15 15 14 16 17 18 18 19 20 20 20 20
Wind_Direction
221 215 211 210 215 215 225 235 246 247 250 249 247 247 257 258 259 264 270 274 277 276 276 277 275 273 268 267 270 273 275 276 275 274 273 268 267 271 274 277 280 282 283 282 281 281 280 281 281
224 224 215 221 225 204 236 242 243 247 251 253 254 254 257 257 260 264 267 273 275 275 274 275 277 275 271 268 270 273 275 276 275 275 274 272 273 272 274 277 280 283 284 282 282 282 281 283 283
227 227 222 222 224 215 235 251 249 257 257 258 257 254 253 257 261 264 270 271 271 272 274 276 276 274 272 268 270 273 272 275 276 277 278 276 273 273 276 276 277 281 283 285 284 282 283 284 285
229 226 226 225 224 227 231 249 258 261 260 262 259 256 255 257 261 264 265 266 271 274 275 276 275 274 272 272 275 274 273 277 280 280 279 280 279 276 278 277 277 279 282 285 287 285 284 285 286
228 229 232 232 233 234 237 247 256 260 262 263 260 256 257 258 258 259 262 264 266 271 273 272 271 271 271 270 273 278 278 280 281 280 280 280 280 280 279 279 280 281 284 285 287 287 285 285 285
229 229 237 237 241 243 244 252 259 258 257 258 259 257 255 262 260 263 263 266 269 271 273 272 271 269 271 270 272 277 280 282 282 281 282 281 280 280 281 282 283 283 285 285 286 284 285 285 285
224 225 229 231 243 251 254 255 257 256 255 255 257 259 259 259 263 262 262 267 269 271 269 271 270 266 268 269 271 275 279 282 282 281 281 281 281 280 283 287 286 284 286 286 285 284 283 283 283
226 223 230 229 242 253 259 257 255 256 255 253 253 258 259 261 262 264 268 268 269 272 271 268 265 267 270 270 272 275 277 280 282 283 282 282 280 282 284 288 289 286 287 286 286 285 285 285 284
227 224 225 225 235 245 254 259 257 258 259 258 257 258 260 263 266 265 266 266 265 268 271 269 266 267 270 271 272 275 276 277 278 281 282 282 283 283 283 285 288 289 289 289 288 286 285 284 285
224 229 231 225 231 240 249 255 258 261 258 262 260 260 262 263 266 265 265 267 267 268 269 270 269 269 270 272 272 273 275 276 277 277 279 281 283 284 285 286 286 288 290 290 289 288 286 284 284
241 238 237 235 236 243 252 258 256 258 260 263 261 259 263 265 263 266 268 269 271 269 267 269 270 271 271 272 274 275 275 274 276 277 278 279 283 285 287 287 287 288 288 289 289 288 286 285 283
246 246 247 247 246 248 255 259 258 256 257 261 263 262 263 266 267 268 266 265 268 267 267 269 269 270 271 274 277 276 275 275 277 278 279 279 283 284 285 287 289 290 290 290 289 288 286 283 282
256 257 257 255 254 256 259 261 261 260 260 264 265 263 262 263 263 263 261 261 266 266 267 269 271 272 270 272 273 275 276 278 280 281 282 281 283 285 287 287 290 291 292 291 291 290 286 284 283
268 270 266 264 260 260 259 262 263 263 263 264 264 267 264 260 261 262 260 262 264 265 268 270 271 274 273 272 271 275 276 278 279 282 285 285 285 285 287 287 291 292 292 291 294 294 289 288 286
278 277 273 270 264 266 266 266 265 268 265 264 267 268 265 265 265 265 264 262 262 264 266 268 269 270 272 273 274 276 277 277 279 283 286 286 289 289 291 290 291 291 290 292 294 296 294 291 289
284 287 281 274 267 269 270 271 271 272 269 266 268 269 267 264 263 263 265 263 263 264 265 268 269 270 271 272 274 277 277 277 281 284 285 287 289 292 293 291 291 291 291 293 294 296 294 292 290
301 300 291 284 278 276 274 273 270 273 273 271 271 272 271 268 264 264 266 264 264 266 267 269 270 269 271 273 277 278 277 277 282 283 286 287 289 292 293 292 291 292 293 294 295 296 294 291 289
290 285 283 282 281 277 274 270 271 276 273 272 273 275 274 271 269 267 264 264 264 266 268 270 271 269 270 273 277 279 279 279 281 280 283 287 289 291 292 291 292 292 293 294 296 296 294 291 290
285 278 278 282 281 277 275 277 274 275 277 276 274 276 275 276 270 264 265 265 265 266 267 270 272 273 274 275 277 279 279 280 282 281 284 287 287 289 291 290 292 292 292 292 292 293 292 291 291
278 276 283 280 278 280 282 284 286 278 279 278 278 279 278 278 276 268 267 268 266 266 266 269 271 273 274 276 277 278 279 280 281 283 285 286 286 286 288 290 291 293 293 292 290 291 291 292 291
283 282 285 287 286 284 287 289 291 285 284 279 278 281 281 277 274 269 265 264 264 265 266 269 271 272 273 273 274 277 280 283 282 283 285 286 287 288 290 291 292 292 294 293 290 291 293 294 294
282 286 292 292 288 286 281 280 285 288 288 287 282 282 285 281 276 270 269 267 267 266 265 267 269 271 272 274 275 277 280 282 283 284 285 287 290 292 293 293 294 296 296 294 290 291 293 295 295
286 288 291 288 285 288 282 283 284 282 284 291 295 292 291 288 279 276 275 274 272 267 267 268 268 270 272 274 277 278 280 284 287 290 291 291 293 295 294 292 294 296 296 294 292 291 293 294 293
279 281 282 284 284 281 281 281 287 288 289 296 300 302 299 292 282 273 271 273 275 272 271 270 269 270 271 274 277 280 281 286 290 294 294 294 295 295 296 295 295 296 295 295 294 293 294 293 293
280 282 294 287 286 291 284 281 285 291 294 299 302 303 302 294 290 285 276 277 277 274 272 271 273 275 276 278 279 283 285 288 289 292 296 298 298 297 297 297 298 298 297 297 296 296 296 295 295
281 283 291 288 283 283 281 283 290 298 295 301 303 304 308 297 293 289 284 281 283 282 275 274 276 278 279 281 283 286 287 291 294 296 299 299 298 299 298 299 296 300 303 300 298 298 298 297 297
282 275 282 297 297 284 281 290 291 292 298 302 303 305 307 303 299 295 287 287 287 285 277 275 278 279 280 282 284 289 292 294 299 302 301 300 301 302 303 302 303 303 302 302 300 299 298 298 299
287 281 282 290 288 281 276 277 283 288 294 299 310 312 312 306 303 295 287 294 294 289 283 277 277 281 288 290 291 293 297 299 300 303 300 300 303 304 306 310 311 308 306 304 302 302 302 300 299
279 285 285 281 276 277 281 281 283 288 292 297 304 308 311 306 302 307 301 303 304 301 297 289 286 287 289 295 300 303 304 302 301 303 302 301 302 306 311 312 314 312 311 310 310 309 309 305 303
279 284 284 285 280 278 281 283 284 294 299 303 303 304 304 307 305 304 306 306 305 305 306 304 298 296 296 298 300 302 303 303 303 303 301 303 306 309 311 314 315 317 317 315 315 315 313 310 307
Height
5876 5877 5878 5880 5882 5883 5885 5887 5887 5887 5885 5885 5885 5885 5886 5885 5886 5888 5885 5884 5884 5884 5884 5884 5885 5885 5885 5885 5885 5885 5885 5884 5884 5884 5884 5884 5884 5884 5883 5883 5882 5882 5881 5881 5881 5880 5880 5879 5879
5874 5875 5877 5878 5880 5881 5885 5886 5885 5883 5883 5883 5883 5884 5884 5883 5883 5883 5882 5882 5882 5883 5883 5883 5883 5883 5883 5883 5883 5883 5883 5883 5883 5882 5882 5882 5882 5882 5881 5881 5881 5880 5880 5879 5879 5879 5878 5878 5877
5872 5873 5875 5876 5878 5881 5883 5883 5881 5879 5880 5881 5881 5882 5882 5881 5881 5880 5881 5880 5881 5881 5881 5881 5881 5882 5882 5882 5882 5881 5881 5881 5881 5881 5880 5880 5880 5880 5879 5879 5879 5878 5878 5877 5877 5877 5876 5876 5876
5869 5871 5873 5875 5877 5880 5880 5880 5878 5877 5879 5879 5879 5880 5879 5879 5879 5879 5879 5879 5879 5879 5879 5879 5879 5880 5880 5880 5880 5880 5880 5879 5879 5879 5878 5878 5878 5877 5877 5877 5876 5876 5876 5875 5875 5874 5874 5874 5873
5866 5868 5870 5872 5875 5876 5877 5876 5876 5877 5877 5876 5877 5877 5876 5876 5876 5876 5876 5876 5876 5877 5877 5877 5877 5877 5877 5878 5878 5878 5878 5878 5877 5877 5876 5876 5876 5875 5875 5874 5874 5874 5873 5873 5872 5872 5872 5871 5871
5864 5866 5869 5870 5872 5874 5874 5874 5874 5874 5874 5874 5874 5874 5874 5873 5872 5874 5874 5873 5874 5874 5874 5875 5875 5875 5875 5875 5875 5876 5875 5875 5875 5875 5874 5873 5873 5873 5872 5872 5871 5871 5871 5870 5870 5869 5869 5869 5868
5863 5864 5866 5869 5870 5871 5872 5871 5872 5871 5871 5871 5871 5871 5872 5871 5871 5871 5871 5871 5872 5871 5871 5872 5872 5872 5873 5873 5873 5873 5873 5873 5873 5872 5872 5871 5871 5870 5870 5869 5869 5868 5868 5867 5867 5866 5866 5866 5865
5860 5862 5864 5866 5867 5869 5868 5868 5867 5868 5867 5867 5868 5868 5868 5869 5869 5868 5869 5869 5869 5869 5868 5869 5869 5870 5870 5870 5870 5870 5870 5870 5870 5869 5869 5868 5868 5867 5867 5866 5866 5865 5865 5864 5864 5863 5863 5862 5862
5857 5860 5861 5863 5864 5865 5864 5864 5863 5863 5863 5862 5864 5865 5864 5865 5864 5866 5866 5866 5866 5866 5865 5866 5866 5867 5867 5867 5867 5867 5867 5867 5866 5866 5865 5865 5864 5864 5864 5863 5863 5862 5861 5861 5860 5860 5859 5858 5858
5856 5857 5859 5860 5860 5860 5860 5860 5860 5859 5859 5859 5861 5861 5862 5862 5861 5863 5863 5862 5863 5863 5862 5862 5862 5863 5863 5864 5864 5864 5863 5863 5863 5863 5862 5862 5861 5861 5860 5860 5859 5858 5858 5857 5857 5856 5855 5854 5854
5852 5854 5855 5855 5855 5856 5856 5856 5856 5855 5856 5856 5857 5858 5858 5858 5858 5859 5859 5859 5859 5859 5858 5858 5858 5859 5859 5860 5860 5860 5860 5860 5859 5859 5858 5858 5858 5857 5857 5856 5855 5855 5854 5853 5852 5852 5851 5850 5850
5849 5850 5851 5851 5852 5852 5852 5852 5852 5853 5854 5853 5853 5854 5854 5855 5855 5856 5856 5855 5856 5856 5855 5854 5854 5855 5855 5856 5856 5856 5856 5855 5855 5855 5855 5854 5854 5853 5853 5852 5852 5851 5850 5849 5848 5847 5846 5846 5845
5846 5847 5847 5848 5848 5848 5848 5848 5849 5850 5850 5850 5849 5849 5850 5850 5851 5852 5851 5852 5852 5852 5852 5851 5851 5850 5851 5852 5852 5852 5852 5852 5852 5851 5851 5850 5850 5849 5849 5848 5847 5847 5846 5844 5844 5842 5841 5841 5840
5843 5843 5843 5844 5844 5844 5845 5845 5846 5845 5846 5846 5845 5845 5844 5846 5845 5846 5847 5848 5847 5848 5848 5848 5848 5846 5846 5847 5848 5848 5848 5848 5847 5847 5846 5846 5846 5845 5844 5844 5843 5842 5841 5840 5839 5838 5836 5836 5835
5840 5840 5840 5841 5841 5841 5842 5842 5842 5840 5840 5841 5840 5840 5841 5841 5842 5843 5843 5843 5842 5843 5844 5844 5843 5843 5843 5844 5844 5844 5844 5844 5843 5843 5843 5842 5841 5841 5840 5840 5839 5838 5836 5835 5834 5833 5832 5830 5830
5837 5837 5837 5838 5838 5838 5840 5839 5838 5837 5836 5837 5837 5837 5837 5836 5837 5838 5839 5839 5839 5840 5840 5840 5839 5840 5840 5840 5840 5840 5840 5840 5839 5839 5838 5838 5837 5836 5836 5835 5835 5833 5832 5831 5830 5828 5827 5826 5825
5836 5835 5835 5836 5835 5835 5836 5835 5834 5834 5833 5833 5834 5833 5832 5832 5832 5834 5834 5835 5835 5836 5836 5836 5836 5837 5837 5836 5836 5837 5836 5836 5836 5835 5834 5834 5833 5832 5831 5831 5830 5829 5828 5827 5825 5824 5823 5821 5820
5835 5835 5835 5834 5833 5832 5832 5831 5830 5830 5830 5830 5830 5829 5829 5828 5829 5829 5830 5830 5831 5832 5832 5832 5833 5833 5832 5832 5833 5833 5832 5832 5832 5831 5831 5830 5829 5828 5827 5826 5825 5824 5823 5822 5821 5819 5818 5816 5815
5833 5833 5833 5832 5831 5830 5829 5829 5828 5827 5828 5826 5826 5826 5825 5825 5824 5825 5826 5826 5827 5827 5828 5828 5828 5828 5828 5828 5828 5829 5829 5828 5828 5827 5826 5826 5825 5824 5823 5822 5821 5820 5819 5817 5816 5814 5812 5811 5810
5832 5831 5831 5830 5830 5829 5828 5827 5826 5824 5825 5824 5823 5822 5822 5821 5821 5821 5822 5822 5823 5823 5823 5824 5824 5824 5824 5824 5824 5824 5824 5824 5824 5823 5822 5821 5820 5819 5818 5817 5816 5814 5813 5812 5810 5808 5807 5806 5805
5830 5829 5828 5828 5828 5827 5826 5825 5825 5823 5822 5821 5820 5819 5819 5818 5817 5817 5817 5818 5818 5819 5819 5820 5820 5820 5820 5820 5820 5820 5820 5820 5819 5819 5818 5817 5815 5814 5813 5812 5810 5809 5808 5806 5805 5803 5802 5801 5799
5827 5827 5827 5826 5825 5825 5826 5825 5823 5821 5819 5817 5816 5815 5815 5815 5814 5813 5813 5813 5814 5815 5815 5816 5816 5816 5816 5815 5815 5815 5815 5815 5814 5814 5812 5811 5810 5809 5808 5806 5805 5804 5802 5801 5799 5798 5797 5795 5794
5826 5826 5825 5824 5824 5823 5823 5822 5821 5818 5817 5815 5813 5813 5812 5811 5811 5810 5809 5810 5810 5811 5811 5812 5812 5812 5811 5811 5811 5811 5810 5810 5809 5808 5807 5806 5806 5804 5802 5801 5800 5798 5797 5795 5794 5793 5791 5790 5788
5824 5824 5823 5822 5822 5821 5821 5820 5819 5815 5814 5813 5811 5810 5809 5808 5806 5806 5805 5806 5806 5807 5807 5807 5808 5808 5807 5807 5807 5806 5805 5805 5804 5804 5803 5802 5801 5799 5797 5796 5795 5793 5791 5790 5789 5787 5785 5784 5782
5823 5823 5822 5821 5820 5819 5819 5818 5818 5814 5812 5811 5809 5808 5806 5805 5804 5802 5803 5803 5802 5802 5803 5804 5804 5804 5803 5803 5803 5802 5801 5801 5800 5799 5798 5797 5796 5794 5793 5791 5790 5788 5786 5785 5783 5782 5780 5778 5776
5820 5821 5821 5820 5819 5819 5818 5816 5815 5812 5810 5808 5807 5805 5804 5802 5801 5801 5800 5800 5799 5799 5799 5800 5800 5800 5800 5800 5799 5798 5797 5797 5796 5795 5794 5793 5791 5790 5788 5786 5785 5783 5782 5780 5778 5776 5774 5772 5770
5820 5819 5820 5819 5817 5817 5816 5815 5812 5809 5807 5806 5805 5803 5802 5800 5799 5798 5796 5797 5796 5797 5796 5797 5797 5797 5796 5796 5795 5794 5793 5793 5792 5791 5790 5788 5786 5785 5783 5781 5780 5779 5777 5775 5773 5771 5769 5767 5764
5819 5818 5818 5817 5816 5814 5814 5812 5810 5807 5806 5804 5803 5802 5800 5799 5797 5796 5795 5795 5794 5793 5792 5793 5793 5793 5792 5792 5791 5790 5790 5789 5788 5787 5785 5784 5782 5780 5779 5777 5775 5774 5772 5770 5768 5765 5763 5761 5759
5817 5817 5815 5814 5813 5813 5811 5812 5807 5806 5804 5802 5801 5800 5798 5797 5797 5795 5794 5793 5791 5791 5790 5789 5790 5789 5789 5789 5788 5787 5786 5785 5784 5783 5781 5780 5778 5776 5775 5773 5771 5770 5767 5765 5763 5760 5758 5755 5753
5815 5815 5814 5813 5811 5810 5808 5809 5804 5802 5801 5800 5800 5799 5798 5797 5795 5794 5792 5791 5790 5789 5788 5787 5787 5787 5786 5786 5785 5784 5783 5781 5780 5779 5777 5776 5775 5773 5771 5769 5768 5766 5763 5761 5759 5756 5754 5751 5748